Flag for U.S.A. Weather past 2 weeks in Pontiac, Michigan, U.S.A.

Now
52 °F

Partly sunny.


Feels Like: 50 °F
Forecast: 52 / 67 °F
Wind: 6 mph from North

Location: Oakland County International Airport

Current Time: Sep 30, 2014 at 8:07:47 PM

Latest Report: Sep 30, 2014 at 6:53 PM


Visibility: 10 mi

Pressure: 30.00 "Hg

Humidity: 83%

Dew point: 47 °F

Location of PontiacLocation

Historic Weather in Pontiac — Graph

°F

Pontiac temperature yesterday

Maximum temperature yesterday: 76 °F (at 2:53 PM)
Minimum temperature yesterday: 52 °F (at 6:53 AM)
Average temperature yesterday: 65 °F

Past Weeks' High & Low Weather Summary

 TemperatureHumidityPressure
High76 °F (Sep 20, 4:53 PM)96% (Sep 25, 5:58 AM)30.45 "Hg (Sep 25, 5:58 AM)
Low40 °F (Sep 19, 3:53 AM)40% (Sep 17, 4:53 PM)29.59 "Hg (Sep 21, 6:53 AM)
Average58 °F73%30.13 "Hg
* Reported Sep 15 6:53 PM — Sep 30 6:53 PM, Pontiac, Weather by CustomWeather, © 2014

Note: Actual official high and low records may vary slightly from our data, if they occured in-between our weather recording intervals... More about our weather records

Advertising

Pontiac weather history for previous 24 hours

 ConditionsComfort  
Time TempWeatherWind HumidityBarometerVisibility
6:53 PM
Sep 30
52 °FPartly sunny.6 mph83%30.00 "Hg10 mi
5:53 PM53 °FPartly sunny.9 mph80%29.99 "Hg10 mi
4:53 PM53 °FCloudy.9 mph80%29.98 "Hg10 mi
3:53 PM53 °FMostly cloudy.9 mph83%29.98 "Hg10 mi
2:53 PM55 °FMostly cloudy.6 mph74%29.97 "Hg10 mi
1:53 PM55 °FMostly cloudy.10 mph74%29.97 "Hg10 mi
12:53 PM54 °FMostly cloudy.10 mph80%29.97 "Hg10 mi
11:53 AM54 °FMostly cloudy.12 mph80%29.96 "Hg10 mi
10:53 AM54 °FOvercast.7 mph80%29.95 "Hg10 mi
9:53 AM52 °FLight rain. Cloudy.9 mph86%29.95 "Hg9 mi
8:53 AM51 °FFog.12 mph89%29.94 "Hg5 mi
7:53 AM51 °FDrizzle. Fog.13 mph92%29.93 "Hg3 mi
6:53 AM51 °FLow clouds.13 mph92%29.92 "Hg10 mi
5:53 AM52 °FDrizzle. Mostly cloudy.14 mph89%29.91 "Hg10 mi
4:53 AM53 °FFog.12 mph89%29.90 "Hg6 mi
3:53 AM53 °FFog.13 mph93%29.88 "Hg3 mi
3:00 AM55 °FMostly cloudy.13 mph90%29.90 "Hg10 mi
1:53 AM58 °FRain. Mostly cloudy.12 mph90%29.88 "Hg7 mi
12:53 AM62 °FRain. Fog.9 mph90%29.88 "Hg4 mi
11:53 PM
Sep 29
66 °FLight rain. Mostly cloudy.9 mph75%29.87 "Hg10 mi
10:53 PM65 °FMostly cloudy.3 mph76%29.87 "Hg10 mi
9:53 PM63 °FClear.No wind78%29.88 "Hg10 mi
8:53 PM66 °FPassing clouds.No wind73%29.89 "Hg10 mi
Weather by CustomWeather, © 2014

See weather overviewHow to use our weather pages